Flag for U.S.A. Weather past 2 weeks in San Francisco, California, U.S.A.

Now
74 °F

Sunny.


Feels Like: 77 °F
Forecast: 53 / 71 °F
Wind: 5 mph from Northeast

Location: San Francisco International Airport

Current Time: Mar 26, 2015 at 4:09:53 PM

Latest Report: Mar 26, 2015 at 2:56 PM


Visibility: 10 mi

Pressure: 30.08 "Hg

Humidity: 57%

Dew point: 58 °F

Location of San FranciscoLocation

Historic Weather in San Francisco — Graph

°F

San Francisco temperature yesterday

Maximum temperature yesterday: 71 °F (at 1:56 PM)
Minimum temperature yesterday: 53 °F (at 4:56 AM)
Average temperature yesterday: 60 °F

Past Weeks' High & Low Weather Summary

 TemperatureHumidityPressure
High80 °F (Mar 14, 6:56 PM)100% (Mar 12, 1:56 AM)30.31 "Hg (Mar 12, 1:56 AM)
Low50 °F (Mar 19, 5:56 AM)25% (Mar 14, 6:56 PM)29.95 "Hg (Mar 14, 5:56 PM)
Average61 °F79%30.13 "Hg
* Reported Mar 11 1:56 PM — Mar 26 1:56 PM, San Francisco, Weather by CustomWeather, © 2015

Note: Actual official high and low records may vary slightly from our data, if they occured in-between our weather recording intervals... More about our weather records

Advertising

San Francisco weather history for previous 24 hours

 ConditionsComfort  
Time TempWeatherWind HumidityBarometerVisibility
1:56 PM
Thu, Mar 26
71 °FSunny.5 mph61%30.11 "Hg10 mi
12:56 PM68 °FSunny.5 mph76%30.14 "Hg10 mi
11:56 AM66 °FSunny.5 mph81%30.15 "Hg10 mi
10:56 AM64 °FSunny.3 mph84%30.17 "Hg10 mi
9:56 AM62 °FPassing clouds.3 mph86%30.17 "Hg10 mi
8:56 AM61 °FPassing clouds.No wind87%30.16 "Hg10 mi
7:56 AM57 °FPassing clouds.No wind90%30.16 "Hg10 mi
6:56 AM54 °FPassing clouds.No wind90%30.14 "Hg10 mi
5:56 AM54 °FClear.No wind90%30.14 "Hg10 mi
4:56 AM53 °FClear.No wind89%30.13 "Hg10 mi
3:56 AM54 °FPassing clouds.3 mph90%30.14 "Hg10 mi
2:56 AM54 °FPassing clouds.6 mph100%30.15 "Hg10 mi
1:56 AM55 °FPassing clouds.8 mph100%30.15 "Hg10 mi
12:56 AM56 °FPassing clouds.9 mph97%30.16 "Hg10 mi
11:56 PM
Wed, Mar 25
56 °FPassing clouds.10 mph97%30.17 "Hg10 mi
10:56 PM57 °FPassing clouds.12 mph90%30.17 "Hg10 mi
9:56 PM57 °FPassing clouds.12 mph93%30.17 "Hg10 mi
8:56 PM58 °FPassing clouds.21 mph90%30.17 "Hg10 mi
7:56 PM58 °FPassing clouds.22 mph90%30.16 "Hg10 mi
6:56 PM60 °FScattered clouds.25 mph86%30.16 "Hg10 mi
5:56 PM63 °FScattered clouds.25 mph70%30.16 "Hg10 mi
4:56 PM65 °FScattered clouds.20 mph68%30.16 "Hg10 mi
Weather by CustomWeather, © 2015

See weather overviewHow to use our weather pages